Location: Unspecified
(0.0000°N, 0.0000°E)
Time: 13:36:22
(UTC+00:00)

Hubble Space Telescope - Pass Details

Date: 31 March 2020
Orbit: 536 x 540 km, 28.5° (Epoch: 01 April)

Event Time Altitude Azimuth Distance (km) Brightness Sun altitude
Rises 18:41:38 0° 238° (WSW) 2,669 5.3 -9.4°
Reaches altitude 10° 18:43:53 10° 236° (WSW) 1,778 4.3 -9.9°
Maximum altitude 18:48:00 79° 149° (SSE) 544 0.7 -11.0°
Enters shadow 18:51:35 13° 63° (ENE) 1,571 2.6 -11.9°
